| time (UTC) | temp C | wind direction | speed KPH | gust KPH | rain 1hr cm | rain 24hr cm | rain mn cm | humidity % | barometer mb |
| 20260509235657 | 24 | 360 | 0.0 | 8.0 | 0.00 | 0.03 | 0.03 | 43 | 1010.0 |
| 20260509234107 | 25 | 351 | 4.8 | 4.8 | 0.00 | 0.03 | 0.03 | 41 | 1009.8 |
| 20260509232803 | 25 | 348 | 3.2 | 8.0 | 0.00 | 0.03 | 0.03 | 41 | 1009.6 |
| 20260509232520 | 25 | 348 | 3.2 | 8.0 | 0.00 | 0.03 | 0.03 | 41 | 1009.6 |
| 20260509230929 | 25 | 12 | 1.6 | 4.8 | 0.00 | 0.03 | 0.03 | 43 | 1009.7 |
| 20260509225340 | 25 | 28 | 6.4 | 6.4 | 0.00 | 0.03 | 0.03 | 40 | 1009.7 |
| 20260509223752 | 26 | 336 | 4.8 | 6.4 | 0.00 | 0.03 | 0.03 | 38 | 1009.6 |
| 20260509222829 | 27 | 348 | 3.2 | 11.3 | 0.00 | 0.03 | 0.03 | 33 | 1009.1 |
| 20260509222204 | 27 | 348 | 3.2 | 11.3 | 0.00 | 0.03 | 0.03 | 33 | 1009.1 |
| 20260509220614 | 27 | 30 | 1.6 | 8.0 | 0.00 | 0.03 | 0.03 | 32 | 1008.7 |
| 20260509215025 | 28 | 208 | 6.4 | 11.3 | 0.00 | 0.05 | 0.03 | 30 | 1008.4 |
| 20260509213435 | 29 | 261 | 12.9 | 16.1 | 0.00 | 0.05 | 0.03 | 29 | 1008.2 |
| 20260509211846 | 30 | 298 | 4.8 | 27.4 | 0.00 | 0.23 | 0.03 | 28 | 1008.2 |
| 20260509210258 | 30 | 304 | 4.8 | 12.9 | 0.00 | 0.23 | 0.03 | 29 | 1008.3 |
| 20260509204708 | 29 | 231 | 4.8 | 11.3 | 0.00 | 0.30 | 0.03 | 30 | 1008.6 |
| 20260509203119 | 28 | 181 | 8.0 | 8.0 | 0.00 | 0.30 | 0.03 | 31 | 1008.7 |
| 20260509201530 | 28 | 184 | 1.6 | 11.3 | 0.00 | 0.33 | 0.03 | 32 | 1008.7 |
| 20260509195945 | 28 | 227 | 9.7 | 25.7 | 0.00 | 0.33 | 0.03 | 32 | 1009.0 |
| 20260509194352 | 28 | 202 | 8.0 | 9.7 | 0.00 | 0.33 | 0.03 | 33 | 1009.2 |
| 20260509192803 | 29 | 238 | 1.6 | 12.9 | 0.00 | 0.33 | 0.03 | 35 | 1009.3 |
| 20260509191218 | 28 | 255 | 1.6 | 22.5 | 0.00 | 0.33 | 0.03 | 36 | 1009.5 |
| 20260509185626 | 28 | 268 | 6.4 | 20.9 | 0.00 | 0.33 | 0.03 | 35 | 1009.8 |
| 20260509184038 | 28 | 208 | 1.6 | 19.3 | 0.00 | 0.33 | 0.03 | 35 | 1009.9 |
| 20260509182447 | 27 | 268 | 3.2 | 20.9 | 0.00 | 0.33 | 0.03 | 41 | 1010.0 |
| 20260509180901 | 27 | 323 | 8.0 | 17.7 | 0.00 | 0.33 | 0.03 | 39 | 1010.2 |
| 20260509175309 | 26 | 257 | 3.2 | 14.5 | 0.00 | 0.33 | 0.03 | 41 | 1010.3 |
| 20260509173721 | 26 | 238 | 3.2 | 4.8 | 0.00 | 0.33 | 0.03 | 44 | 1010.6 |
| 20260509172131 | 26 | 247 | 11.3 | 11.3 | 0.00 | 0.33 | 0.03 | 42 | 1010.9 |
| 20260509171355 | 25 | 244 | 6.4 | 17.7 | 0.00 | 0.33 | 0.03 | 45 | 1010.8 |
| 20260509170545 | 25 | 244 | 6.4 | 17.7 | 0.00 | 0.33 | 0.03 | 45 | 1010.8 |
| 20260509164953 | 24 | 241 | 4.8 | 8.0 | 0.00 | 0.33 | 0.03 | 48 | 1010.9 |
| 20260509161818 | 23 | 232 | 3.2 | 9.7 | 0.00 | 0.33 | 0.03 | 51 | 1010.8 |
| 20260509160226 | 23 | 360 | 0.0 | 8.0 | 0.00 | 0.33 | 0.03 | 52 | 1011.0 |
| 20260509154637 | 22 | 360 | 0.0 | 1.6 | 0.00 | 0.33 | 0.03 | 55 | 1011.0 |
| 20260509153051 | 21 | 217 | 1.6 | 4.8 | 0.00 | 0.33 | 0.03 | 59 | 1011.0 |
| 20260509151501 | 20 | 249 | 8.0 | 8.0 | 0.00 | 0.33 | 0.03 | 63 | 1011.1 |
| 20260509145910 | 20 | 250 | 11.3 | 11.3 | 0.00 | 0.33 | 0.03 | 63 | 1011.1 |
| 20260509144322 | 18 | 257 | 1.6 | 1.6 | 0.00 | 0.33 | 0.03 | 68 | 1011.1 |
| 20260509142736 | 18 | 222 | 1.6 | 6.4 | 0.00 | 0.33 | 0.03 | 70 | 1011.0 |
| 20260509141147 | 17 | 211 | 3.2 | 8.0 | 0.00 | 0.33 | 0.03 | 74 | 1011.1 |
| 20260509135556 | 16 | 360 | 0.0 | 1.6 | 0.00 | 0.33 | 0.03 | 79 | 1011.1 |
| 20260509132418 | 13 | 248 | 1.6 | 12.9 | 0.00 | 0.33 | 0.03 | 87 | 1010.8 |
| 20260509130829 | 12 | 360 | 0.0 | 3.2 | 0.00 | 0.33 | 0.03 | 93 | 1010.8 |
| 20260509123650 | 11 | 232 | 1.6 | 3.2 | 0.00 | 0.33 | 0.03 | 97 | 1010.7 |
| 20260509122102 | 10 | 360 | 0.0 | 4.8 | 0.00 | 0.33 | 0.03 | 96 | 1010.6 |
| 20260509120513 | 10 | 246 | 1.6 | 6.4 | 0.00 | 0.33 | 0.03 | 96 | 1010.3 |
| 20260509111746 | 10 | 360 | 0.0 | 0.0 | 0.00 | 0.33 | 0.03 | 96 | 1009.9 |
| 20260509103017 | 10 | 224 | 1.6 | 6.4 | 0.00 | 0.33 | 0.03 | 96 | 1009.8 |
| 20260509092702 | 11 | 360 | 0.0 | 4.8 | 0.03 | 0.33 | 0.03 | 95 | 1009.8 |
| 20260509073623 | 11 | 163 | 1.6 | 12.9 | 0.00 | 0.30 | 0.00 | 96 | 1009.6 |
| 20260509063303 | 11 | 360 | 0.0 | 0.0 | 0.00 | 0.30 | 0.00 | 95 | 1010.1 |
| 20260509061723 | 11 | 360 | 0.0 | 0.0 | 0.00 | 0.30 | 0.00 | 96 | 1010.2 |
| 20260509060125 | 11 | 360 | 0.0 | 0.0 | 0.00 | 0.30 | 0.00 | 96 | 1010.3 |
| 20260509054535 | 11 | 360 | 0.0 | 0.0 | 0.00 | 0.30 | 0.00 | 96 | 1010.3 |
| 20260509052951 | 10 | 360 | 0.0 | 0.0 | 0.00 | 0.30 | 0.00 | 96 | 1010.3 |
| 20260509051357 | 10 | 360 | 0.0 | 0.0 | 0.00 | 0.30 | 0.00 | 94 | 1010.3 |
| 20260509035453 | 11 | 360 | 0.0 | 0.0 | 0.00 | 0.30 | 0.30 | 94 | 1010.4 |
| 20260509033903 | 11 | 360 | 0.0 | 0.0 | 0.00 | 0.30 | 0.30 | 93 | 1010.5 |
| 20260509032314 | 12 | 360 | 0.0 | 0.0 | 0.00 | 0.30 | 0.30 | 94 | 1010.4 |
| 20260509023547 | 12 | 360 | 0.0 | 0.0 | 0.00 | 0.30 | 0.30 | 92 | 1009.8 |
| 20260509021958 | 13 | 360 | 0.0 | 0.0 | 0.00 | 0.30 | 0.30 | 91 | 1009.5 |
| 20260509014822 | 14 | 360 | 0.0 | 0.0 | 0.00 | 0.30 | 0.30 | 88 | 1009.4 |
| 20260509013231 | 15 | 360 | 0.0 | 0.0 | 0.00 | 0.30 | 0.30 | 87 | 1009.3 |
| 20260509011642 | 16 | 360 | 0.0 | 0.0 | 0.00 | 0.30 | 0.30 | 86 | 1009.1 |
| 20260509004504 | 17 | 360 | 0.0 | 0.0 | 0.00 | 0.30 | 0.30 | 81 | 1009.1 |
| 20260509002915 | 18 | 360 | 0.0 | 0.0 | 0.00 | 0.30 | 0.30 | 78 | 1008.7 |
| 20260509001328 | 18 | 360 | 0.0 | 0.0 | 0.00 | 0.30 | 0.30 | 76 | 1008.7 |